Regional Weather Roundup
Issued by NWS Northern Indiana

Home | Current Version | Previous Version | Text Only | Print | Product List | Glossary Off
Versions: 1 2 3 4 5 6 7 8 9 10 11 12 13 14 15 16 17 18 19 20 21 22 23 24 25 26 27 28 29 30 31 32 33 34 35 36 37 38 39 40 41 42 43 44 45 46 47 48 49 50

436
ASUS43 KIWX 230110
RWRIWX

KIWX WEATHER ROUNDUP
NATIONAL WEATHER SERVICE NORTHERN INDIANA
900 PM EDT TUE AUG 22 2017

NOTE: "FAIR" INDICATES FEW OR NO CLOUDS BELOW 12,000 FEET WITH NO
SIGNIFICANT WEATHER AND/OR OBSTRUCTIONS TO VISIBILITY.

* THESE STATIONS ARE NOT UNDER NWS QUALITY CONTROL. THEY ALSO MAY NOT
  REPORT WEATHER SUCH AS PRECIPITATION OR FOG.

INZ001>027-230200-
NORTHERN INDIANA

CITY           SKY/WX    TMP DP  RH WIND       PRES   REMARKS
GARY*          PTCLDY    73  48  40 NW8G20    29.95R
VALPARAISO     PTCLDY    70  61  73 CALM      29.95R
MICHIGAN CITY* CLEAR     68  55  64 N5        29.95R
LAPORTE*       CLEAR     66  59  79 N5        29.95R
KNOX*          CLEAR     63  59  88 N3        29.94R
SOUTH BEND     CLEAR     66  59  78 NW3       29.94R
ELKHART*       CLEAR     68  55  64 CALM      29.94R
GOSHEN         CLEAR     68  55  63 NW7       29.94R
MONTICELLO*    MOCLDY    66  62  85 N6        29.95R
LOGANSPORT*    MOCLDY    68  61  77 W3        29.94R
ROCHESTER*     CLEAR     70  59  68 N6        29.95R
WARSAW*        CLEAR     66  57  72 N5        29.94R
AUBURN*        CLEAR     68  54  60 NW8       29.93R
FORT WAYNE     PTCLDY    70  58  65 NW8       29.93R
HUNTINGTON*    MOCLDY    69  61  74 NW5       29.93R
PERU/GRISSOM   CLOUDY    73  62  69 NW6       29.93R
MARION*        PTCLDY    66  63  88 NW3       29.94R

$$
INZ028>050-230200-
CENTRAL INDIANA

CITY           SKY/WX    TMP DP  RH WIND       PRES   REMARKS
LAFAYETTE      CLEAR     67  64  90 W5        29.95R
KOKOMO*        MOCLDY    69  64  84 W6        29.95R
MUNCIE*        CLEAR     72  63  73 NW7       29.93R
INDIANAPOLIS   PTCLDY    72  62  71 NW10      29.95R

$$
MIZ043>046-050>051-056>058-064>065-071>073-077>080-230200-
SOUTHWEST LOWER MICHIGAN

CITY           SKY/WX    TMP DP  RH WIND       PRES   REMARKS
BATTLE CREEK   CLEAR     67  54  63 NW6       29.93R
BENTON HARBOR  PTCLDY    71  54  54 VRB6      29.93R
COLDWATER*     CLEAR     65  52  61 NW5       29.93R
HILLSDALE*     CLEAR     63  52  67 NW9       29.91S
HOLLAND        CLEAR     69  52  54 NW7       29.92S
GRAND RAPIDS   PTCLDY    68  53  58 W10       29.90S
KALAMAZOO      CLEAR     66  53  63 NW8       29.93S
STURGIS*       CLEAR     65  55  71 N3        29.93R
THREE RIVERS*  FAIR      67  56  67 CALM      29.93S

$$
OHZ001>008-015>018-024>025-230200-
NORTHWEST OHIO

CITY           SKY/WX    TMP DP  RH WIND       PRES   REMARKS
WAUSEON*       FAIR      68  57  68 NW8G16    29.90R
DEFIANCE       CLEAR     68  57  68 NW9       29.91R
FINDLAY        CLEAR     69  62  78 W5        29.88R
TOLEDO EXPRESS CLEAR     70  59  68 NW9       29.88R
TOLEDO METCALF PTCLDY    73  60  63 W13       29.88R
LIMA           PTCLDY    69  66  90 NW7       29.90R

$$
AND FOR LAKE MICHIGAN COASTAL AND OPEN LAKE BUOY OBSERVATIONS

STATION/POSITION TEMP    WIND        PRES    VSBY  WAVE
                 AIR SEA DIR/SP/G                  HT/PER
                 (F)     (DEG/KT/KT) (MB)    (MI)  (FT/S)
CALUMET HARBOR    74     300/  6/ 15 1013.5R
MICHIGAN CITY     73     330/ 20/ 22   N/A
BURNS HARBOR      74     340/ 16/ 21 1014.2R
SAINT JOSEPH      73     350/ 12/ 15 1013.9
SOUTH LAKE BUOY   72 71  350/ 19/ 21 1012.7          3/ 5
4 MI NW BRIDGMAN  72 73   10/ 14/ 19 1013.5          3/ 4
MICHIGAN CITY     74 74  340/ 16/ 19   N/A           5/ 4

$$
&&




USA.gov is the U.S. government's official web portal to all federal, state and local government web resources and services.